Regional Weather Roundup
Issued by NWS

Home | Current Version | Previous Version | Graphics & Text | Print | Product List | Glossary Off
Versions: 1 2 3 4 5 6 7 8 9 10 11 12 13 14 15 16 17 18 19 20 21 22 23 24 25 26 27 28 29 30 31 32 33 34 35 36 37 38 39 40 41 42 43 44 45 46 47 48 49 50

426
ASUS43 KTOP 231559
RWRKS

WEATHER ROUNDUP FOR KANSAS
NATIONAL WEATHER SERVICE GOODLAND KS
1000 AM CST THU NOV 23 2017

NOTE:  "FAIR" INDICATES FEW OR NO CLOUDS BELOW 12,000 FEET WITH NO
SIGNIFICANT WEATHER AND/OR OBSTRUCTIONS TO VISIBILITY.

KSZ001>006-013>018-027>032-041>047-231700-
NORTHWEST KANSAS

CITY           SKY/WX    TMP DP  RH WIND       PRES   REMARKS
GOODLAND       CLOUDY    57  41  55 W6        30.13F
HAYS           SUNNY     54  40  59 NW7       30.09S
HILL CITY      CLOUDY    52  42  69 W6        30.10S
RUSSELL        SUNNY     56  41  57 CALM      30.07S
$$

KSZ061>065-074>080-084>089-231700-
SOUTHWEST KANSAS

CITY           SKY/WX    TMP DP  RH WIND       PRES   REMARKS
DODGE CITY     SUNNY     57  40  52 NW12      30.13S
GARDEN CITY    SUNNY     55  40  56 NW10      30.13F
GREAT BEND     SUNNY     57  41  55 NW8       30.10S
LIBERAL        CLOUDY    58  39  49 NW15      30.15F
$$

KSZ066>073-081>083-090>101-231700-
SOUTHEAST KANSAS

CITY           SKY/WX    TMP DP  RH WIND       PRES   REMARKS
CHANUTE        SUNNY     45  26  47 SW9       30.10F
COFFEYVILLE    SUNNY     46  27  47 S6        30.11F
HUTCHINSON     SUNNY     53  35  50 W7        30.08F
MEDICINE LODGE   N/A     59  38  45 VRB6      30.08F
NEWTON         SUNNY     51  30  44 W5        30.09S
PARSONS        SUNNY     46  26  45 SW8       30.12S
WICHITA INTL   MOSUNNY   48  29  47 CALM      30.09S
WICHITA JABRA  SUNNY     47  27  45 W5        30.09S
WICHITA MCCONL SUNNY     46  25  44 W3        30.09S
WINFIELD       CLOUDY    47  26  44 W6        30.11S
$$

KSZ007>012-019>026-033>040-048>060-102>105-231700-
NORTHEAST KANSAS

CITY           SKY/WX    TMP DP  RH WIND       PRES   REMARKS
CONCORDIA      SUNNY     53  36  52 NW3       30.06F
EMPORIA        SUNNY     50  27  40 W7        30.07S
LAWRENCE       SUNNY     46  28  49 SW5       30.06F
MANHATTAN      SUNNY     46  27  47 SW6       30.07F
OLATHE IND     SUNNY     44  27  51 W7        30.06F
OLATHE EXE     SUNNY     43  26  51 W6        30.05F
SALINA         SUNNY     51  34  52 CALM      30.09S
TOPEKA BILLARD SUNNY     46  28  49 W7        30.06F
TOPEKA FORBES  SUNNY     48  29  47 W5        30.06S
$$




USA.gov is the U.S. government's official web portal to all federal, state and local government web resources and services.